[[{"header":{"parameterUnit":"m.s-1","parameterCategory":1,"la1":30.2991,"la2":30.254,"lo1":-89.0895,"lo2":-89.0444,"dy":0.0017,"dx":0.0017,"nx":28,"ny":28,"refTime":"2023-10-10T09:00:00:Z","depth":0,"parameterNumber":2,"parameterNumberName":"U-component_of_WINDS"},"data":[0,0,0,0,0,0,0,0,0,0,0,0,0,0,0,0,0,0,0,0,0,0,0,0,0,0,0,0,0,0,0,0,0,0,0,0,0,0,0,0,0,0,0,0,0,0,0,0,0,0,0,0,0,0,0,0,0,0,-2.6062,-2.6062,0,-2.6099,-2.6099,-2.6099,-2.6036,-2.6034,-2.6032,-2.603,-2.6066,-2.6069,-2.6072,0,0,0,0,0,0,0,0,0,0,0,0,0,-2.5934,-2.5937,-2.6062,-2.6062,-2.6063,-2.6099,-2.6099,-2.61,-2.6036,-2.6034,-2.6031,-2.6029,-2.6065,-2.6068,-2.6072,0,0,0,0,0,0,0,0,0,0,0,0,0,-2.5982,-2.5938,-2.6062,-2.6036,-2.6034,-2.6098,-2.6099,-2.61,-2.6037,-2.6034,-2.6031,-2.6028,-2.6064,-2.6068,-2.6072,-2.6164,0,0,-2.6086,-2.6088,0,0,0,0,0,0,0,0,-2.5979,-2.5987,-2.6039,-2.6037,-2.6035,-2.6059,-2.6067,-2.6121,-2.6038,-2.6036,-2.603,-2.6026,-2.6066,-2.607,-2.6084,-2.6166,-2.6167,-2.6086,-2.6089,-2.6091,-2.6092,0,0,0,0,0,0,0,-2.5976,-2.5985,-2.6076,-2.604,-2.6038,-2.6021,-2.6024,-2.6077,-2.6068,-2.6036,-2.6031,-2.6036,-2.6065,-2.608,-2.6085,-2.6168,-2.6086,-2.609,-2.6093,-2.6095,-2.6325,-2.6328,0,0,0,0,0,0,-2.5976,-2.5983,-2.6075,-2.6077,-2.5999,-2.6026,-2.603,-2.6055,-2.6068,-2.6067,-2.6039,-2.6033,-2.6074,-2.6079,-2.6086,-2.6193,-2.6091,-2.6095,-2.6098,-2.6321,-2.6326,-2.6329,0,0,0,0,0,0,-2.5974,-2.5985,-2.6074,-2.6029,-2.6039,-2.6032,-2.6061,-2.6057,-2.6073,-2.607,-2.6068,-2.6057,-2.6072,-2.6079,-2.6145,-2.6193,-2.6097,-2.6101,-2.6317,-2.6323,-2.6327,-2.6409,0,0,0,0,0,0,-2.5971,-2.5985,-2.602,-2.603,-2.6041,-2.6133,-2.6064,-2.606,-2.6081,-2.6074,-2.6086,-2.6085,-2.607,-2.6139,-2.6149,-2.6198,-2.6105,-2.6313,-2.632,-2.6326,-2.6402,-2.6416,-2.6429,0,0,0,0,0,-2.5966,-2.6042,-2.6022,-2.6034,-2.6086,-2.6136,-2.6143,-2.6124,-2.6085,-2.612,-2.6118,-2.6085,-2.6186,-2.6146,-2.6157,-2.6208,-2.631,-2.6318,-2.6325,-2.6396,-2.6414,-2.6428,0,0,0,0,0,0,-2.6038,-2.6043,-2.6021,-2.6102,-2.6119,-2.6125,-2.6169,-2.6143,-2.6171,-2.6163,-2.6138,-2.6141,-2.6212,-2.6216,-2.6171,-2.6296,-2.6241,-2.6252,-2.6291,-2.6308,-2.6321,-2.6318,-2.6108,0,0,0,0,0,-2.6063,-2.6104,-2.6106,-2.6177,-2.6187,-2.6177,-2.6198,-2.6182,-2.6198,-2.6205,-2.6208,-2.6225,-2.626,-2.6284,-2.6317,-2.6402,-2.6403,-2.6442,-2.6456,-2.6467,-2.6476,-2.6521,-2.6538,-2.6355,-2.6355,-2.6355,0,0,-2.6115,-2.6123,-2.6151,-2.6192,-2.6203,-2.6246,-2.6183,-2.6231,-2.6262,-2.6212,-2.6274,-2.6277,-2.6294,-2.6369,-2.6403,-2.6375,-2.6527,-2.6477,-2.6485,-2.6489,-2.653,-2.6548,-2.6563,-2.636,-2.6359,-2.6358,0,0,-2.6233,-2.6243,-2.6303,-2.6316,-2.6334,-2.6326,-2.6341,-2.6351,-2.6351,-2.6412,-2.6376,-2.6411,-2.6473,-2.6487,-2.6501,-2.6622,-2.6593,-2.6634,-2.6704,-2.6747,-2.6762,-2.6774,-2.6817,-2.6833,-2.6643,-2.6643,-2.6643,0,-2.6296,-2.6359,-2.6337,-2.6388,-2.6406,-2.6363,-2.6423,-2.6436,-2.6464,-2.6477,-2.6446,-2.6522,-2.653,-2.6608,-2.6637,-2.6651,-2.6666,-2.6632,-2.6761,-2.6774,-2.6785,-2.6826,-2.6842,-2.6648,-2.6647,-2.6647,-2.6646,0,-2.6435,-2.6479,-2.6526,-2.6554,-2.6577,-2.6632,-2.6618,-2.6645,-2.6626,-2.6622,-2.6684,-2.6693,-2.6726,-2.6743,-2.6725,-2.6818,-2.68,-2.6766,-2.671,-2.6808,-2.6846,-2.6861,-2.6655,-2.6653,-2.6652,-2.6651,0,0,-2.66,-2.6614,-2.6632,-2.6643,-2.6659,-2.6693,-2.6745,-2.6777,-2.68,-2.682,-2.6863,-2.6916,-2.6884,-2.6901,-2.6884,-2.6922,-2.7017,-2.6883,-2.6882,-2.6907,-2.7118,-2.7145,-2.7163,-2.6997,-2.7,-2.7002,-2.7117,0,-2.6716,-2.6807,-2.6789,-2.6878,-2.6918,-2.6876,-2.6922,-2.6936,-2.6933,-2.6966,-2.6962,-2.6999,-2.6954,-2.6964,-2.7,-2.6998,-2.7059,-2.6989,-2.7036,-2.7038,-2.7033,-2.7183,-2.7211,-2.7319,-2.7132,-2.7134,-2.7136,0,-2.6865,-2.6891,-2.6984,-2.6992,-2.7008,-2.705,-2.7077,-2.7109,-2.7124,-2.7119,-2.7137,-2.7113,-2.7164,-2.7107,-2.7176,-2.7129,-2.7147,-2.7148,-2.7152,-2.7156,-2.7093,-2.719,-2.7353,-2.7369,-2.7159,-2.7157,-2.7155,0,-2.6975,-2.7033,-2.7096,-2.7107,-2.7119,-2.7149,-2.7155,-2.7166,-2.7187,-2.721,-2.7223,-2.7253,-2.7269,-2.7292,-2.7275,-2.7236,-2.7347,-2.7289,-2.7344,-2.7344,-2.7369,-2.7368,-2.7537,-2.7381,-2.7381,-2.738,-2.738,0,-2.7108,-2.7166,-2.7146,-2.7185,-2.7248,-2.7225,-2.7289,-2.729,-2.73,-2.7338,-2.7303,-2.7339,-2.7315,-2.7349,-2.7336,-2.7395,-2.7402,-2.7399,-2.7395,-2.7403,-2.7403,-2.7414,-2.7406,-2.7385,-2.7384,-2.7383,-2.7382,0,-2.7242,-2.7231,-2.7297,-2.7302,-2.7305,-2.7351,-2.7355,-2.7391,-2.7385,-2.7432,-2.7442,-2.7432,-2.747,-2.7456,-2.7496,-2.7487,-2.7562,-2.7548,-2.7558,-2.7554,-2.7609,-2.7604,-2.7792,-2.7815,-2.7643,-2.7645,-2.7647,0,-2.7328,-2.7372,-2.7381,-2.7404,-2.7413,-2.745,-2.7471,-2.7449,-2.7472,-2.7491,-2.7524,-2.7559,-2.7585,-2.7647,-2.7643,-2.7673,-2.7659,-2.7723,-2.7664,-2.7669,-2.766,-2.7658,-2.7662,-2.7735,-2.7737,-2.7738,-2.774,0,-2.748,-2.7472,-2.7503,-2.7533,-2.7558,-2.758,-2.7599,-2.7619,-2.7598,-2.7625,-2.7664,-2.7684,-2.7724,-2.7759,-2.7785,-2.779,-2.7762,-2.7758,-2.7772,-2.7781,-2.7784,-2.7783,-2.759,-2.7754,-2.7753,-2.7752,-2.7751,-2.775,-2.7593,-2.763,-2.7642,-2.7678,-2.7689,-2.7707,-2.7741,-2.7739,-2.777,-2.7802,-2.7787,-2.7831,-2.7842,-2.7875,-2.7884,-2.7917,-2.7893,-2.7913,-2.7918,-2.7924,-2.7931,-2.7779,-2.7922,-2.7922,-2.7921,-2.7921,-2.7921,0,-2.7744,-2.7749,-2.7782,-2.7809,-2.7837,-2.7808,-2.7826,-2.7851,-2.7891,-2.7904,-2.7931,-2.7974,-2.8007,-2.8005,-2.8035,-2.8062,-2.805,-2.8071,-2.8069,-2.807,-2.7952,-2.7936,-2.808,-2.808,-2.808,-2.808,-2.808,-2.808,-2.7825,-2.7886,-2.7879,-2.7945,-2.7949,-2.7993,-2.8006,-2.8022,-2.8033,-2.8082,-2.811,-2.8108,-2.8115,-2.8145,-2.8174,-2.8172,-2.8185,-2.8211,-2.8205,-2.8094,-2.8079,-2.8064,-2.8049,-2.8214,-2.8214,-2.832,-2.8321,-2.8322]},{"header":{"parameterUnit":"m.s-1","parameterCategory":1,"la1":30.2991,"la2":30.254,"lo1":-89.0895,"lo2":-89.0444,"dy":0.0017,"dx":0.0017,"nx":28,"ny":28,"refTime":"2023-10-10T09:00:00:Z","depth":0,"parameterNumber":3,"parameterNumberName":"V-component_of_WINDS"},"data":[0,0,0,0,0,0,0,0,0,0,0,0,0,0,0,0,0,0,0,0,0,0,0,0,0,0,0,0,0,0,0,0,0,0,0,0,0,0,0,0,0,0,0,0,0,0,0,0,0,0,0,0,0,0,0,0,0,0,-0.214,-0.214,0,-0.2128,-0.2128,-0.2127,-0.211,-0.211,-0.2109,-0.2109,-0.2098,-0.2098,-0.2098,0,0,0,0,0,0,0,0,0,0,0,0,0,-0.2149,-0.2148,-0.214,-0.214,-0.2139,-0.2128,-0.2128,-0.2127,-0.211,-0.211,-0.2109,-0.2109,-0.2098,-0.2098,-0.2098,0,0,0,0,0,0,0,0,0,0,0,0,0,-0.2142,-0.2148,-0.214,-0.2129,-0.2128,-0.2128,-0.2128,-0.2127,-0.211,-0.211,-0.2109,-0.2109,-0.2098,-0.2098,-0.2098,-0.2107,0,0,-0.2098,-0.2098,0,0,0,0,0,0,0,0,-0.2142,-0.2141,-0.2131,-0.213,-0.2129,-0.212,-0.2127,-0.2121,-0.211,-0.2117,-0.2109,-0.2109,-0.2106,-0.2105,-0.2104,-0.2106,-0.2106,-0.2098,-0.2098,-0.2098,-0.2098,0,0,0,0,0,0,0,-0.2142,-0.2142,-0.2135,-0.2131,-0.213,-0.2126,-0.2124,-0.2125,-0.2114,-0.2116,-0.2115,-0.2114,-0.2105,-0.2104,-0.2103,-0.2106,-0.2098,-0.2098,-0.2098,-0.2098,-0.2116,-0.2116,0,0,0,0,0,0,-0.2144,-0.2142,-0.2135,-0.2135,-0.2134,-0.2126,-0.2124,-0.2123,-0.2114,-0.2112,-0.2114,-0.2113,-0.2104,-0.2103,-0.2103,-0.2113,-0.2098,-0.2098,-0.2098,-0.2116,-0.2116,-0.2117,0,0,0,0,0,0,-0.2145,-0.2144,-0.2136,-0.2138,-0.2137,-0.2126,-0.2125,-0.2123,-0.2122,-0.2112,-0.211,-0.2115,-0.2104,-0.2103,-0.2106,-0.2113,-0.2098,-0.2098,-0.2115,-0.2116,-0.2116,-0.2134,0,0,0,0,0,0,-0.2145,-0.2144,-0.2147,-0.2138,-0.2137,-0.2139,-0.2126,-0.2123,-0.2122,-0.212,-0.2113,-0.2111,-0.2103,-0.2106,-0.2106,-0.2112,-0.2098,-0.2114,-0.2115,-0.2116,-0.2133,-0.2135,-0.2137,0,0,0,0,0,-0.2145,-0.2153,-0.2147,-0.2147,-0.214,-0.2139,-0.2138,-0.2129,-0.2123,-0.2126,-0.212,-0.2111,-0.2112,-0.2107,-0.2106,-0.2113,-0.2114,-0.2115,-0.2116,-0.2132,-0.2135,-0.2137,0,0,0,0,0,0,-0.2163,-0.2151,-0.2145,-0.215,-0.2146,-0.2136,-0.214,-0.2133,-0.213,-0.2129,-0.2118,-0.2116,-0.2121,-0.2117,-0.2112,-0.2121,-0.2112,-0.2113,-0.2124,-0.2126,-0.2129,-0.213,-0.2098,0,0,0,0,0,-0.2167,-0.2167,-0.2157,-0.2162,-0.216,-0.2151,-0.215,-0.2143,-0.2139,-0.2137,-0.2131,-0.2127,-0.2126,-0.2126,-0.2125,-0.2132,-0.213,-0.2136,-0.2139,-0.2141,-0.2142,-0.2146,-0.2148,-0.212,-0.212,-0.212,0,0,-0.2176,-0.217,-0.217,-0.2166,-0.2161,-0.2162,-0.2149,-0.215,-0.2151,-0.2137,-0.214,-0.2135,-0.213,-0.2136,-0.2138,-0.2133,-0.2149,-0.2142,-0.2144,-0.2144,-0.2147,-0.215,-0.2152,-0.2121,-0.2121,-0.2121,0,0,-0.2193,-0.2188,-0.2192,-0.2188,-0.2182,-0.2176,-0.2177,-0.2169,-0.2165,-0.2168,-0.2157,-0.2158,-0.2157,-0.2154,-0.2152,-0.2169,-0.2161,-0.2169,-0.218,-0.2184,-0.2187,-0.2188,-0.2194,-0.2197,-0.217,-0.217,-0.217,0,-0.2205,-0.2205,-0.2195,-0.2197,-0.2195,-0.2182,-0.2186,-0.2183,-0.2178,-0.2177,-0.2171,-0.217,-0.2166,-0.217,-0.2174,-0.2173,-0.2174,-0.2169,-0.2187,-0.2189,-0.219,-0.2196,-0.2198,-0.2171,-0.2171,-0.2171,-0.217,0,-0.222,-0.2221,-0.2224,-0.2219,-0.2218,-0.2221,-0.2211,-0.2211,-0.2205,-0.2199,-0.2202,-0.2197,-0.2195,-0.2195,-0.2189,-0.2199,-0.2196,-0.2189,-0.2179,-0.2194,-0.2199,-0.2201,-0.2172,-0.2172,-0.2171,-0.2171,0,0,-0.2247,-0.2236,-0.2238,-0.2235,-0.2228,-0.2228,-0.2231,-0.2229,-0.2229,-0.2226,-0.2228,-0.2228,-0.2221,-0.2219,-0.2213,-0.2216,-0.223,-0.2208,-0.2208,-0.2213,-0.2241,-0.2246,-0.2249,-0.2225,-0.2225,-0.2225,-0.2241,0,-0.2263,-0.2266,-0.2257,-0.2263,-0.2264,-0.2252,-0.2254,-0.2251,-0.2246,-0.2246,-0.224,-0.224,-0.2231,-0.223,-0.2233,-0.2227,-0.2235,-0.2226,-0.2227,-0.2227,-0.2228,-0.2252,-0.2257,-0.2273,-0.2243,-0.2244,-0.2244,0,-0.2281,-0.2278,-0.2284,-0.2277,-0.2277,-0.2279,-0.2276,-0.2276,-0.2272,-0.2268,-0.2266,-0.2259,-0.2261,-0.2252,-0.2256,-0.225,-0.2249,-0.2247,-0.2247,-0.2247,-0.2236,-0.2252,-0.2277,-0.228,-0.2247,-0.2247,-0.2247,0,-0.23,-0.2298,-0.2301,-0.23,-0.2291,-0.2293,-0.229,-0.2285,-0.2284,-0.2282,-0.2282,-0.228,-0.2279,-0.2278,-0.2271,-0.2264,-0.2275,-0.2265,-0.2273,-0.2273,-0.2275,-0.2275,-0.2301,-0.2275,-0.2275,-0.2275,-0.2275,0,-0.2318,-0.2322,-0.231,-0.2312,-0.2317,-0.2307,-0.2312,-0.2307,-0.2303,-0.2304,-0.2295,-0.2296,-0.2286,-0.2286,-0.228,-0.2285,-0.2284,-0.2281,-0.228,-0.2282,-0.2283,-0.2282,-0.2281,-0.2276,-0.2276,-0.2276,-0.2275,0,-0.234,-0.2332,-0.2335,-0.2327,-0.2325,-0.2329,-0.2322,-0.2324,-0.2319,-0.2321,-0.2321,-0.2312,-0.2312,-0.2305,-0.2303,-0.2299,-0.2306,-0.2303,-0.2307,-0.2306,-0.2314,-0.2314,-0.234,-0.2343,-0.2316,-0.2316,-0.2316,0,-0.2352,-0.2355,-0.2347,-0.2347,-0.2345,-0.2345,-0.2344,-0.2335,-0.2335,-0.233,-0.2333,-0.2332,-0.2331,-0.2332,-0.2326,-0.2325,-0.2322,-0.2331,-0.2321,-0.2324,-0.2322,-0.2322,-0.2322,-0.2333,-0.2333,-0.2334,-0.2334,0,-0.2374,-0.237,-0.2369,-0.2367,-0.2366,-0.2364,-0.2362,-0.2363,-0.2353,-0.2353,-0.2353,-0.2352,-0.2351,-0.2351,-0.2349,-0.2346,-0.2338,-0.2337,-0.2339,-0.2341,-0.2344,-0.2343,-0.2313,-0.2336,-0.2336,-0.2336,-0.2336,-0.2336,-0.2391,-0.2393,-0.2388,-0.2388,-0.2385,-0.2383,-0.2385,-0.2379,-0.2379,-0.2377,-0.2372,-0.2373,-0.2369,-0.2366,-0.2364,-0.2365,-0.236,-0.2362,-0.2363,-0.2364,-0.2365,-0.2344,-0.2364,-0.2364,-0.2364,-0.2364,-0.2364,0,-0.2413,-0.2409,-0.2409,-0.2405,-0.2405,-0.2398,-0.2395,-0.2396,-0.2397,-0.2394,-0.2393,-0.2393,-0.2393,-0.2387,-0.2386,-0.2388,-0.2385,-0.2388,-0.2388,-0.2388,-0.2369,-0.2368,-0.2391,-0.2391,-0.2391,-0.2391,-0.2391,-0.2391,-0.2424,-0.2427,-0.2423,-0.2425,-0.2421,-0.2422,-0.2421,-0.2419,-0.2417,-0.2418,-0.2417,-0.2414,-0.241,-0.2409,-0.2408,-0.2407,-0.2407,-0.2411,-0.2409,-0.2392,-0.2389,-0.2386,-0.2385,-0.2412,-0.2412,-0.2427,-0.2427,-0.2427]}]]